| time (UTC) | temp F | wind direction | speed MPH | gust MPH | rain 1hr in | rain 24hr in | rain mn in | humidity % | barometer mb |
| 20260507155003 | 59 | 263 | 7.0 | 12.0 | 0.00 | 0.16 | 0.01 | 46 | 1015.4 |
| 20260507154505 | 58 | 251 | 7.0 | 10.0 | 0.00 | 0.17 | 0.01 | 44 | 1015.6 |
| 20260507154004 | 57 | 242 | 7.0 | 10.0 | 0.00 | 0.17 | 0.01 | 47 | 1015.6 |
| 20260507153712 | 57 | 241 | 7.0 | 10.0 | 0.00 | 0.17 | 0.01 | 44 | 1015.6 |
| 20260507153003 | 56 | 245 | 7.0 | 10.0 | 0.00 | 0.18 | 0.01 | 48 | 1015.8 |
| 20260507152504 | 55 | 252 | 6.0 | 10.0 | 0.00 | 0.18 | 0.01 | 54 | 1015.8 |
| 20260507152003 | 55 | 259 | 6.0 | 9.0 | 0.00 | 0.18 | 0.01 | 56 | 1015.9 |
| 20260507151508 | 54 | 261 | 6.0 | 9.0 | 0.00 | 0.18 | 0.01 | 57 | 1016.0 |
| 20260507151009 | 53 | 262 | 5.0 | 9.0 | 0.00 | 0.18 | 0.01 | 57 | 1016.1 |
| 20260507150504 | 52 | 261 | 6.0 | 10.0 | 0.01 | 0.19 | 0.01 | 63 | 1016.1 |
| 20260507150004 | 51 | 260 | 6.0 | 10.0 | 0.01 | 0.19 | 0.01 | 59 | 1016.2 |
| 20260507145503 | 50 | 259 | 5.0 | 9.0 | 0.01 | 0.19 | 0.01 | 64 | 1016.2 |
| 20260507145004 | 49 | 249 | 5.0 | 8.0 | 0.01 | 0.20 | 0.01 | 70 | 1016.2 |
| 20260507144504 | 49 | 245 | 5.0 | 8.0 | 0.01 | 0.20 | 0.01 | 71 | 1016.3 |
| 20260507144215 | 48 | 246 | 5.0 | 8.0 | 0.01 | 0.20 | 0.01 | 72 | 1016.3 |
| 20260507143504 | 47 | 249 | 5.0 | 8.0 | 0.01 | 0.21 | 0.01 | 75 | 1016.3 |
| 20260507143008 | 46 | 249 | 5.0 | 8.0 | 0.01 | 0.21 | 0.01 | 75 | 1016.2 |
| 20260507142504 | 45 | 252 | 5.0 | 8.0 | 0.01 | 0.22 | 0.01 | 77 | 1016.4 |
| 20260507142217 | 45 | 252 | 5.0 | 8.0 | 0.01 | 0.22 | 0.01 | 77 | 1016.4 |
| 20260507141504 | 44 | 247 | 6.0 | 8.0 | 0.01 | 0.22 | 0.01 | 77 | 1016.4 |
| 20260507141003 | 44 | 247 | 6.0 | 9.0 | 0.01 | 0.22 | 0.01 | 79 | 1016.6 |
| 20260507140716 | 43 | 249 | 6.0 | 9.0 | 0.00 | 0.21 | 0.00 | 79 | 1016.6 |
| 20260507140004 | 43 | 245 | 4.0 | 8.0 | 0.00 | 0.21 | 0.00 | 81 | 1016.4 |
| 20260507135504 | 42 | 239 | 4.0 | 7.0 | 0.00 | 0.21 | 0.00 | 82 | 1016.5 |
| 20260507135003 | 41 | 239 | 4.0 | 7.0 | 0.00 | 0.21 | 0.00 | 81 | 1016.4 |
| 20260507134503 | 41 | 251 | 4.0 | 6.0 | 0.00 | 0.22 | 0.00 | 82 | 1016.5 |
| 20260507134003 | 40 | 257 | 4.0 | 7.0 | 0.00 | 0.22 | 0.00 | 84 | 1016.6 |
| 20260507133503 | 40 | 250 | 4.0 | 7.0 | 0.00 | 0.22 | 0.00 | 84 | 1016.7 |
| 20260507133003 | 40 | 251 | 3.0 | 7.0 | 0.00 | 0.22 | 0.00 | 85 | 1016.7 |
| 20260507132504 | 39 | 254 | 1.0 | 4.0 | 0.00 | 0.22 | 0.00 | 87 | 1016.7 |
| 20260507132004 | 39 | 212 | 0.0 | 2.0 | 0.00 | 0.23 | 0.00 | 88 | 1016.5 |
| 20260507131503 | 39 | 212 | 0.0 | 2.0 | 0.00 | 0.23 | 0.00 | 90 | 1016.4 |
| 20260507131003 | 38 | 0 | 0.0 | 0.0 | 0.00 | 0.23 | 0.00 | 90 | 1016.4 |
| 20260507130504 | 36 | 0 | 0.0 | 0.0 | 0.00 | 0.23 | 0.00 | 92 | 1016.4 |
| 20260507130004 | 35 | 0 | 0.0 | 0.0 | 0.00 | 0.23 | 0.00 | 91 | 1016.4 |
| 20260507125503 | 34 | 0 | 0.0 | 0.0 | 0.00 | 0.23 | 0.00 | 91 | 1016.4 |
| 20260507125215 | 33 | 0 | 0.0 | 0.0 | 0.00 | 0.23 | 0.00 | 91 | 1016.3 |
| 20260507124503 | 32 | 0 | 0.0 | 0.0 | 0.00 | 0.23 | 0.00 | 91 | 1016.4 |
| 20260507124003 | 32 | 0 | 0.0 | 0.0 | 0.00 | 0.23 | 0.00 | 91 | 1016.3 |
| 20260507123714 | 31 | 0 | 0.0 | 0.0 | 0.00 | 0.23 | 0.00 | 92 | 1016.2 |
| 20260507123003 | 31 | 0 | 0.0 | 0.0 | 0.00 | 0.23 | 0.00 | 92 | 1016.2 |
| 20260507122503 | 30 | 0 | 0.0 | 0.0 | 0.00 | 0.23 | 0.00 | 93 | 1016.2 |
| 20260507122004 | 29 | 0 | 0.0 | 0.0 | 0.00 | 0.23 | 0.00 | 93 | 1016.2 |
| 20260507121716 | 29 | 0 | 0.0 | 0.0 | 0.00 | 0.23 | 0.00 | 93 | 1016.2 |
| 20260507121003 | 28 | 0 | 0.0 | 0.0 | 0.00 | 0.23 | 0.00 | 91 | 1016.2 |
| 20260507120717 | 28 | 0 | 0.0 | 0.0 | 0.00 | 0.23 | 0.00 | 91 | 1016.2 |
| 20260507120009 | 29 | 0 | 0.0 | 0.0 | 0.00 | 0.23 | 0.00 | 91 | 1016.1 |
| 20260507115503 | 30 | 0 | 0.0 | 0.0 | 0.00 | 0.23 | 0.00 | 92 | 1016.1 |
| 20260507115216 | 30 | 0 | 0.0 | 0.0 | 0.00 | 0.23 | 0.00 | 92 | 1016.0 |
| 20260507114504 | 30 | 0 | 0.0 | 0.0 | 0.00 | 0.23 | 0.00 | 92 | 1016.3 |
| 20260507114004 | 29 | 0 | 0.0 | 0.0 | 0.00 | 0.23 | 0.00 | 92 | 1016.3 |
| 20260507113504 | 29 | 0 | 0.0 | 0.0 | 0.00 | 0.23 | 0.00 | 91 | 1016.4 |
| 20260507113008 | 30 | 0 | 0.0 | 0.0 | 0.00 | 0.23 | 0.00 | 91 | 1016.3 |
| 20260507112504 | 30 | 0 | 0.0 | 0.0 | 0.00 | 0.23 | 0.00 | 92 | 1016.1 |
| 20260507112004 | 30 | 0 | 0.0 | 0.0 | 0.00 | 0.23 | 0.00 | 91 | 1016.1 |
| 20260507111504 | 30 | 0 | 0.0 | 0.0 | 0.00 | 0.23 | 0.00 | 91 | 1016.1 |
| 20260507111003 | 30 | 0 | 0.0 | 0.0 | 0.00 | 0.23 | 0.00 | 91 | 1016.4 |
| 20260507110504 | 30 | 212 | 0.0 | 2.0 | 0.00 | 0.23 | 0.00 | 90 | 1016.3 |
| 20260507110003 | 30 | 225 | 1.0 | 4.0 | 0.00 | 0.23 | 0.00 | 90 | 1016.5 |
| 20260507105503 | 31 | 228 | 1.0 | 4.0 | 0.00 | 0.23 | 0.00 | 91 | 1016.6 |
| 20260507105004 | 31 | 213 | 2.0 | 6.0 | 0.00 | 0.24 | 0.00 | 90 | 1016.7 |
| 20260507104504 | 31 | 216 | 1.0 | 6.0 | 0.00 | 0.24 | 0.00 | 90 | 1016.7 |
| 20260507104004 | 31 | 260 | 1.0 | 4.0 | 0.00 | 0.24 | 0.00 | 90 | 1016.8 |
| 20260507103716 | 32 | 273 | 1.0 | 4.0 | 0.00 | 0.24 | 0.00 | 91 | 1016.7 |
| 20260507103004 | 31 | 269 | 2.0 | 4.0 | 0.00 | 0.24 | 0.00 | 91 | 1016.7 |
| 20260507102717 | 31 | 266 | 1.0 | 3.0 | 0.00 | 0.24 | 0.00 | 91 | 1016.7 |
| 20260507102009 | 31 | 266 | 2.0 | 3.0 | 0.00 | 0.24 | 0.00 | 90 | 1016.9 |
| 20260507101503 | 32 | 264 | 3.0 | 5.0 | 0.00 | 0.24 | 0.00 | 90 | 1016.9 |
| 20260507101003 | 32 | 256 | 4.0 | 6.0 | 0.00 | 0.24 | 0.00 | 91 | 1016.9 |
| 20260507100503 | 32 | 250 | 4.0 | 7.0 | 0.00 | 0.24 | 0.00 | 91 | 1016.9 |
| 20260507100004 | 32 | 252 | 5.0 | 7.0 | 0.00 | 0.24 | 0.00 | 91 | 1017.1 |
| 20260507095714 | 32 | 255 | 5.0 | 7.0 | 0.00 | 0.24 | 0.00 | 91 | 1017.1 |
| 20260507095003 | 31 | 249 | 3.0 | 6.0 | 0.00 | 0.24 | 0.00 | 92 | 1017.1 |
| 20260507094504 | 31 | 246 | 2.0 | 5.0 | 0.00 | 0.24 | 0.00 | 91 | 1017.0 |
| 20260507094004 | 31 | 263 | 1.0 | 3.0 | 0.00 | 0.24 | 0.00 | 89 | 1017.1 |
| 20260507093716 | 31 | 275 | 1.0 | 2.0 | 0.00 | 0.24 | 0.00 | 90 | 1017.0 |
| 20260507093003 | 32 | 275 | 1.0 | 2.0 | 0.00 | 0.24 | 0.00 | 90 | 1016.8 |
| 20260507092718 | 32 | 275 | 1.0 | 2.0 | 0.00 | 0.24 | 0.00 | 90 | 1016.8 |
| 20260507092003 | 32 | 275 | 2.0 | 3.0 | 0.00 | 0.25 | 0.00 | 89 | 1017.1 |
| 20260507091503 | 32 | 274 | 3.0 | 6.0 | 0.00 | 0.25 | 0.00 | 89 | 1017.1 |
| 20260507091004 | 33 | 269 | 4.0 | 7.0 | 0.00 | 0.25 | 0.00 | 90 | 1017.2 |
| 20260507090503 | 33 | 258 | 5.0 | 7.0 | 0.00 | 0.25 | 0.00 | 91 | 1017.2 |
| 20260507090005 | 33 | 248 | 4.0 | 7.0 | 0.00 | 0.26 | 0.00 | 91 | 1017.3 |
| 20260507085715 | 32 | 245 | 3.0 | 7.0 | 0.00 | 0.26 | 0.00 | 92 | 1017.3 |
| 20260507085008 | 32 | 243 | 1.0 | 3.0 | 0.00 | 0.26 | 0.00 | 91 | 1017.3 |
| 20260507084716 | 32 | 243 | 1.0 | 3.0 | 0.00 | 0.26 | 0.00 | 91 | 1017.3 |
| 20260507084004 | 31 | 0 | 0.0 | 0.0 | 0.00 | 0.27 | 0.00 | 90 | 1017.2 |
| 20260507083503 | 32 | 243 | 1.0 | 2.0 | 0.00 | 0.28 | 0.00 | 90 | 1017.1 |
| 20260507083004 | 32 | 244 | 2.0 | 4.0 | 0.00 | 0.28 | 0.00 | 90 | 1017.1 |
| 20260507082504 | 32 | 244 | 3.0 | 4.0 | 0.00 | 0.29 | 0.00 | 90 | 1017.3 |
| 20260507082004 | 32 | 246 | 3.0 | 4.0 | 0.00 | 0.29 | 0.00 | 90 | 1017.4 |
| 20260507081503 | 32 | 244 | 4.0 | 5.0 | 0.00 | 0.29 | 0.00 | 90 | 1017.2 |
| 20260507081004 | 32 | 238 | 4.0 | 6.0 | 0.00 | 0.30 | 0.00 | 90 | 1017.4 |
| 20260507080504 | 33 | 232 | 4.0 | 6.0 | 0.00 | 0.30 | 0.00 | 90 | 1017.4 |
| 20260507080218 | 33 | 230 | 4.0 | 6.0 | 0.00 | 0.30 | 0.00 | 90 | 1017.4 |
| 20260507075503 | 33 | 228 | 3.0 | 5.0 | 0.00 | 0.30 | 0.00 | 90 | 1017.5 |
| 20260507075213 | 33 | 227 | 3.0 | 5.0 | 0.00 | 0.30 | 0.00 | 89 | 1017.5 |
| 20260507074504 | 33 | 227 | 4.0 | 5.0 | 0.00 | 0.30 | 0.00 | 90 | 1017.6 |
| 20260507074214 | 33 | 228 | 4.0 | 6.0 | 0.00 | 0.30 | 0.00 | 90 | 1017.7 |
| 20260507073503 | 33 | 234 | 4.0 | 6.0 | 0.00 | 0.30 | 0.00 | 90 | 1017.7 |
| 20260507073004 | 33 | 239 | 5.0 | 7.0 | 0.00 | 0.30 | 0.00 | 90 | 1017.7 |
| 20260507072503 | 34 | 239 | 5.0 | 7.0 | 0.00 | 0.30 | 0.00 | 90 | 1017.7 |
| 20260507072216 | 34 | 238 | 5.0 | 7.0 | 0.00 | 0.30 | 0.00 | 90 | 1017.8 |
| 20260507071504 | 34 | 238 | 5.0 | 8.0 | 0.00 | 0.30 | 0.00 | 89 | 1018.0 |
| 20260507071004 | 34 | 234 | 5.0 | 8.0 | 0.00 | 0.30 | 0.00 | 89 | 1018.0 |
| 20260507070503 | 34 | 232 | 6.0 | 9.0 | 0.00 | 0.30 | 0.00 | 89 | 1017.9 |
| 20260507070009 | 34 | 236 | 7.0 | 9.0 | 0.00 | 0.30 | 0.00 | 89 | 1018.0 |
| 20260507065504 | 34 | 239 | 6.0 | 9.0 | 0.00 | 0.30 | 0.00 | 89 | 1018.0 |
| 20260507065003 | 34 | 241 | 5.0 | 8.0 | 0.00 | 0.30 | 0.00 | 89 | 1018.2 |
| 20260507064717 | 34 | 239 | 5.0 | 8.0 | 0.00 | 0.30 | 0.00 | 89 | 1018.1 |
| 20260507064215 | 34 | 229 | 4.0 | 7.0 | 0.00 | 0.30 | 0.00 | 90 | 1018.1 |
| 20260507063504 | 34 | 226 | 4.0 | 7.0 | 0.00 | 0.30 | 0.00 | 90 | 1018.1 |
| 20260507063008 | 34 | 231 | 4.0 | 7.0 | 0.00 | 0.30 | 0.00 | 90 | 1018.2 |
| 20260507062504 | 34 | 234 | 4.0 | 6.0 | 0.00 | 0.31 | 0.00 | 90 | 1018.1 |
| 20260507062005 | 34 | 230 | 4.0 | 8.0 | 0.00 | 0.31 | 0.00 | 89 | 1018.3 |
| 20260507061503 | 34 | 226 | 4.0 | 8.0 | 0.00 | 0.31 | 0.00 | 90 | 1018.1 |
| 20260507061004 | 34 | 232 | 5.0 | 7.0 | 0.00 | 0.32 | 0.00 | 90 | 1018.1 |
| 20260507060504 | 34 | 240 | 4.0 | 6.0 | 0.00 | 0.32 | 0.00 | 90 | 1018.3 |
| 20260507060003 | 34 | 240 | 4.0 | 6.0 | 0.00 | 0.32 | 0.00 | 90 | 1018.3 |
| 20260507055504 | 34 | 240 | 4.0 | 6.0 | 0.00 | 0.33 | 0.32 | 90 | 1018.2 |
| 20260507055004 | 34 | 239 | 2.0 | 6.0 | 0.00 | 0.33 | 0.32 | 91 | 1018.3 |
| 20260507054504 | 34 | 232 | 1.0 | 5.0 | 0.00 | 0.33 | 0.32 | 90 | 1018.2 |
| 20260507054003 | 34 | 212 | 2.0 | 4.0 | 0.00 | 0.33 | 0.32 | 90 | 1018.2 |
| 20260507053503 | 34 | 213 | 3.0 | 4.0 | 0.00 | 0.33 | 0.32 | 90 | 1018.2 |
| 20260507053004 | 34 | 218 | 3.0 | 5.0 | 0.00 | 0.33 | 0.32 | 90 | 1018.3 |
| 20260507052503 | 34 | 225 | 3.0 | 6.0 | 0.00 | 0.33 | 0.32 | 90 | 1018.3 |
| 20260507052218 | 34 | 226 | 3.0 | 6.0 | 0.00 | 0.33 | 0.32 | 90 | 1018.4 |
| 20260507051508 | 35 | 221 | 3.0 | 5.0 | 0.00 | 0.33 | 0.32 | 90 | 1018.4 |
| 20260507051003 | 35 | 218 | 3.0 | 5.0 | 0.00 | 0.33 | 0.32 | 90 | 1018.4 |
| 20260507050717 | 35 | 215 | 3.0 | 5.0 | 0.00 | 0.33 | 0.32 | 90 | 1018.3 |
| 20260507050004 | 35 | 210 | 3.0 | 4.0 | 0.00 | 0.33 | 0.32 | 90 | 1018.4 |
| 20260507045504 | 35 | 216 | 3.0 | 4.0 | 0.00 | 0.33 | 0.32 | 90 | 1018.4 |
| 20260507045003 | 35 | 218 | 3.0 | 4.0 | 0.00 | 0.33 | 0.32 | 91 | 1018.4 |
| 20260507044504 | 35 | 217 | 2.0 | 4.0 | 0.00 | 0.33 | 0.32 | 91 | 1018.4 |
| 20260507044217 | 35 | 217 | 2.0 | 4.0 | 0.00 | 0.33 | 0.32 | 90 | 1018.4 |
| 20260507043714 | 35 | 218 | 2.0 | 4.0 | 0.00 | 0.33 | 0.32 | 91 | 1018.5 |
| 20260507043003 | 35 | 219 | 2.0 | 3.0 | 0.00 | 0.33 | 0.32 | 91 | 1018.6 |
| 20260507042504 | 35 | 219 | 2.0 | 3.0 | 0.00 | 0.33 | 0.32 | 91 | 1018.6 |
| 20260507042004 | 35 | 219 | 1.0 | 2.0 | 0.00 | 0.33 | 0.32 | 91 | 1018.6 |
| 20260507041504 | 35 | 219 | 0.0 | 2.0 | 0.00 | 0.33 | 0.32 | 90 | 1018.6 |
| 20260507041003 | 35 | 219 | 1.0 | 2.0 | 0.00 | 0.33 | 0.32 | 90 | 1018.7 |
| 20260507040505 | 36 | 219 | 1.0 | 2.0 | 0.00 | 0.33 | 0.32 | 90 | 1018.5 |
| 20260507040215 | 36 | 219 | 1.0 | 2.0 | 0.00 | 0.33 | 0.32 | 90 | 1018.5 |
| 20260507035503 | 36 | 219 | 2.0 | 3.0 | 0.00 | 0.33 | 0.32 | 90 | 1018.4 |
| 20260507035003 | 36 | 219 | 1.0 | 3.0 | 0.00 | 0.33 | 0.32 | 90 | 1018.4 |
| 20260507034504 | 35 | 219 | 0.0 | 2.0 | 0.00 | 0.33 | 0.32 | 89 | 1018.5 |
| 20260507034004 | 36 | 0 | 0.0 | 0.0 | 0.00 | 0.34 | 0.32 | 89 | 1018.4 |
| 20260507033503 | 36 | 0 | 0.0 | 0.0 | 0.00 | 0.34 | 0.32 | 90 | 1018.4 |
| 20260507033004 | 36 | 0 | 0.0 | 0.0 | 0.00 | 0.34 | 0.32 | 90 | 1018.4 |
| 20260507032716 | 36 | 0 | 0.0 | 0.0 | 0.00 | 0.34 | 0.32 | 89 | 1018.5 |
| 20260507032003 | 36 | 0 | 0.0 | 0.0 | 0.00 | 0.35 | 0.32 | 88 | 1018.3 |
| 20260507031504 | 37 | 0 | 0.0 | 0.0 | 0.00 | 0.35 | 0.32 | 89 | 1018.4 |
| 20260507031004 | 37 | 0 | 0.0 | 0.0 | 0.00 | 0.35 | 0.32 | 89 | 1018.3 |
| 20260507030503 | 36 | 0 | 0.0 | 0.0 | 0.00 | 0.35 | 0.32 | 89 | 1018.3 |
| 20260507030004 | 36 | 0 | 0.0 | 0.0 | 0.00 | 0.35 | 0.32 | 88 | 1018.2 |
| 20260507025504 | 37 | 0 | 0.0 | 0.0 | 0.00 | 0.36 | 0.32 | 87 | 1018.2 |
| 20260507025003 | 38 | 0 | 0.0 | 0.0 | 0.00 | 0.36 | 0.32 | 87 | 1018.2 |
| 20260507024715 | 38 | 0 | 0.0 | 0.0 | 0.00 | 0.36 | 0.32 | 87 | 1018.2 |
| 20260507024004 | 38 | 0 | 0.0 | 0.0 | 0.00 | 0.36 | 0.32 | 87 | 1018.0 |
| 20260507023504 | 38 | 219 | 0.0 | 1.0 | 0.00 | 0.36 | 0.32 | 86 | 1018.1 |
| 20260507023003 | 38 | 219 | 1.0 | 1.0 | 0.00 | 0.36 | 0.32 | 85 | 1018.1 |
| 20260507022509 | 39 | 219 | 1.0 | 1.0 | 0.00 | 0.36 | 0.32 | 84 | 1018.1 |
| 20260507022004 | 39 | 219 | 1.0 | 2.0 | 0.00 | 0.36 | 0.32 | 83 | 1018.0 |
| 20260507021503 | 40 | 219 | 1.0 | 2.0 | 0.00 | 0.36 | 0.32 | 83 | 1018.0 |
| 20260507021009 | 40 | 219 | 2.0 | 2.0 | 0.00 | 0.36 | 0.32 | 82 | 1018.0 |
| 20260507020503 | 40 | 219 | 1.0 | 2.0 | 0.00 | 0.36 | 0.32 | 82 | 1018.0 |
| 20260507020003 | 41 | 219 | 1.0 | 2.0 | 0.00 | 0.36 | 0.32 | 81 | 1018.0 |
| 20260507015509 | 41 | 219 | 1.0 | 2.0 | 0.00 | 0.37 | 0.32 | 79 | 1018.2 |
| 20260507015004 | 42 | 219 | 2.0 | 3.0 | 0.00 | 0.38 | 0.32 | 78 | 1018.2 |
| 20260507014503 | 43 | 219 | 2.0 | 4.0 | 0.00 | 0.39 | 0.32 | 77 | 1018.2 |
| 20260507014004 | 43 | 219 | 3.0 | 5.0 | 0.00 | 0.39 | 0.32 | 76 | 1018.1 |
| 20260507013504 | 44 | 218 | 4.0 | 5.0 | 0.00 | 0.40 | 0.32 | 75 | 1018.1 |
| 20260507013004 | 44 | 217 | 4.0 | 6.0 | 0.00 | 0.41 | 0.32 | 74 | 1018.1 |
| 20260507012508 | 45 | 214 | 4.0 | 6.0 | 0.00 | 0.42 | 0.32 | 72 | 1018.0 |
| 20260507012220 | 45 | 214 | 3.0 | 6.0 | 0.00 | 0.42 | 0.32 | 72 | 1018.0 |
| 20260507011713 | 46 | 226 | 1.0 | 5.0 | 0.00 | 0.42 | 0.32 | 72 | 1018.0 |
| 20260507011003 | 45 | 227 | 2.0 | 4.0 | 0.00 | 0.42 | 0.32 | 72 | 1018.0 |
| 20260507010714 | 45 | 231 | 3.0 | 5.0 | 0.00 | 0.42 | 0.32 | 72 | 1018.0 |
| 20260507010004 | 45 | 230 | 4.0 | 5.0 | 0.00 | 0.42 | 0.32 | 71 | 1017.9 |
| 20260507005503 | 45 | 229 | 4.0 | 7.0 | 0.00 | 0.42 | 0.32 | 72 | 1018.0 |
| 20260507005003 | 45 | 234 | 4.0 | 7.0 | 0.00 | 0.42 | 0.32 | 72 | 1017.9 |
| 20260507004504 | 46 | 235 | 3.0 | 6.0 | 0.00 | 0.42 | 0.32 | 72 | 1017.7 |
| 20260507004004 | 46 | 226 | 3.0 | 5.0 | 0.00 | 0.42 | 0.32 | 70 | 1017.9 |
| 20260507003503 | 46 | 226 | 2.0 | 5.0 | 0.00 | 0.42 | 0.32 | 71 | 1017.7 |
| 20260507003003 | 46 | 234 | 2.0 | 5.0 | 0.00 | 0.42 | 0.32 | 72 | 1017.6 |
| 20260507002504 | 46 | 229 | 2.0 | 5.0 | 0.00 | 0.42 | 0.32 | 72 | 1017.8 |
| 20260507002216 | 46 | 219 | 2.0 | 5.0 | 0.00 | 0.42 | 0.32 | 71 | 1018.0 |
| 20260507001503 | 46 | 217 | 1.0 | 4.0 | 0.00 | 0.42 | 0.32 | 72 | 1017.9 |
| 20260507001217 | 46 | 223 | 1.0 | 4.0 | 0.00 | 0.42 | 0.32 | 70 | 1017.8 |
| 20260507000504 | 45 | 224 | 1.0 | 2.0 | 0.00 | 0.42 | 0.32 | 73 | 1017.9 |
| 20260507000004 | 44 | 248 | 1.0 | 3.0 | 0.00 | 0.42 | 0.32 | 75 | 1017.9 |
| 20260506235503 | 44 | 262 | 2.0 | 3.0 | 0.00 | 0.42 | 0.32 | 78 | 1017.9 |
| 20260506235008 | 44 | 256 | 1.0 | 5.0 | 0.00 | 0.42 | 0.32 | 79 | 1018.0 |
| 20260506234504 | 44 | 217 | 1.0 | 5.0 | 0.00 | 0.42 | 0.32 | 81 | 1018.0 |
| 20260506234003 | 43 | 249 | 1.0 | 4.0 | 0.00 | 0.42 | 0.32 | 79 | 1018.0 |
| 20260506233504 | 43 | 317 | 1.0 | 4.0 | 0.00 | 0.42 | 0.32 | 79 | 1018.1 |
| 20260506233004 | 43 | 13 | 0.0 | 1.0 | 0.00 | 0.42 | 0.32 | 79 | 1018.1 |
| 20260506232503 | 43 | 330 | 0.0 | 3.0 | 0.00 | 0.42 | 0.32 | 81 | 1018.2 |
| 20260506232216 | 43 | 260 | 0.0 | 3.0 | 0.00 | 0.42 | 0.32 | 81 | 1018.2 |
| 20260506231504 | 43 | 311 | 0.0 | 4.0 | 0.00 | 0.42 | 0.32 | 82 | 1018.0 |
| 20260506231217 | 42 | 7 | 1.0 | 4.0 | 0.00 | 0.42 | 0.32 | 84 | 1017.7 |
| 20260506230715 | 42 | 13 | 1.0 | 3.0 | 0.00 | 0.42 | 0.32 | 84 | 1017.6 |
| 20260506230004 | 42 | 13 | 1.0 | 4.0 | 0.00 | 0.42 | 0.32 | 85 | 1017.6 |
| 20260506225504 | 41 | 13 | 2.0 | 4.0 | 0.00 | 0.42 | 0.32 | 85 | 1017.7 |
| 20260506225004 | 41 | 13 | 2.0 | 4.0 | 0.00 | 0.42 | 0.32 | 86 | 1017.7 |
| 20260506224503 | 41 | 21 | 2.0 | 5.0 | 0.00 | 0.42 | 0.32 | 86 | 1017.6 |
| 20260506224215 | 41 | 29 | 2.0 | 5.0 | 0.00 | 0.42 | 0.32 | 86 | 1017.6 |
| 20260506223713 | 41 | 45 | 2.0 | 5.0 | 0.00 | 0.42 | 0.32 | 86 | 1017.9 |
| 20260506223003 | 41 | 51 | 3.0 | 6.0 | 0.00 | 0.42 | 0.32 | 87 | 1017.7 |
| 20260506222504 | 41 | 43 | 3.0 | 7.0 | 0.00 | 0.42 | 0.32 | 87 | 1017.7 |
| 20260506222004 | 40 | 18 | 4.0 | 7.0 | 0.00 | 0.42 | 0.32 | 86 | 1017.7 |
| 20260506221504 | 41 | 6 | 4.0 | 7.0 | 0.00 | 0.42 | 0.32 | 85 | 1017.8 |
| 20260506221003 | 41 | 15 | 3.0 | 7.0 | 0.00 | 0.42 | 0.32 | 86 | 1018.0 |
| 20260506220716 | 41 | 14 | 3.0 | 7.0 | 0.00 | 0.42 | 0.32 | 85 | 1018.0 |
| 20260506220004 | 41 | 357 | 2.0 | 5.0 | 0.01 | 0.42 | 0.32 | 87 | 1018.1 |
| 20260506215503 | 41 | 8 | 1.0 | 4.0 | 0.01 | 0.42 | 0.32 | 89 | 1018.0 |
| 20260506215003 | 40 | 35 | 1.0 | 4.0 | 0.02 | 0.42 | 0.32 | 90 | 1018.0 |
| 20260506214504 | 40 | 73 | 1.0 | 3.0 | 0.03 | 0.42 | 0.32 | 89 | 1017.8 |
| 20260506214003 | 40 | 69 | 2.0 | 5.0 | 0.04 | 0.42 | 0.32 | 89 | 1017.7 |
| 20260506213503 | 39 | 64 | 3.0 | 5.0 | 0.05 | 0.42 | 0.32 | 90 | 1017.9 |
| 20260506213004 | 39 | 45 | 3.0 | 5.0 | 0.06 | 0.42 | 0.32 | 90 | 1017.7 |
| 20260506212715 | 39 | 37 | 3.0 | 5.0 | 0.06 | 0.42 | 0.32 | 90 | 1017.6 |
| 20260506212003 | 39 | 33 | 2.0 | 5.0 | 0.06 | 0.42 | 0.32 | 90 | 1017.6 |
| 20260506211716 | 39 | 35 | 2.0 | 5.0 | 0.06 | 0.42 | 0.32 | 90 | 1017.8 |
| 20260506211004 | 38 | 300 | 1.0 | 3.0 | 0.06 | 0.42 | 0.32 | 90 | 1018.1 |
| 20260506210504 | 38 | 300 | 1.0 | 2.0 | 0.06 | 0.42 | 0.32 | 90 | 1018.0 |
| 20260506210003 | 38 | 300 | 1.0 | 3.0 | 0.05 | 0.41 | 0.31 | 90 | 1018.1 |
| 20260506205504 | 38 | 300 | 2.0 | 3.0 | 0.06 | 0.41 | 0.31 | 90 | 1018.2 |
| 20260506205004 | 38 | 305 | 3.0 | 5.0 | 0.05 | 0.40 | 0.30 | 90 | 1018.2 |
| 20260506204713 | 38 | 303 | 3.0 | 5.0 | 0.04 | 0.39 | 0.29 | 89 | 1018.3 |
| 20260506204216 | 38 | 305 | 2.0 | 5.0 | 0.03 | 0.38 | 0.28 | 89 | 1018.3 |
| 20260506203504 | 38 | 79 | 1.0 | 3.0 | 0.02 | 0.37 | 0.27 | 89 | 1018.3 |
| 20260506203003 | 38 | 92 | 1.0 | 3.0 | 0.01 | 0.36 | 0.26 | 90 | 1018.2 |
| 20260506202715 | 38 | 96 | 1.0 | 3.0 | 0.01 | 0.36 | 0.26 | 89 | 1018.2 |
| 20260506202005 | 38 | 98 | 2.0 | 3.0 | 0.01 | 0.36 | 0.26 | 90 | 1018.1 |
| 20260506201504 | 38 | 81 | 1.0 | 4.0 | 0.01 | 0.36 | 0.26 | 90 | 1018.1 |
| 20260506201003 | 38 | 74 | 1.0 | 4.0 | 0.02 | 0.36 | 0.26 | 90 | 1018.1 |
| 20260506200717 | 38 | 71 | 2.0 | 4.0 | 0.02 | 0.36 | 0.26 | 90 | 1018.1 |
| 20260506200004 | 38 | 71 | 2.0 | 4.0 | 0.03 | 0.36 | 0.26 | 90 | 1018.0 |
| 20260506195503 | 38 | 77 | 3.0 | 5.0 | 0.02 | 0.35 | 0.25 | 90 | 1018.0 |
| 20260506195004 | 38 | 79 | 3.0 | 5.0 | 0.02 | 0.35 | 0.25 | 90 | 1017.9 |
| 20260506194504 | 38 | 68 | 3.0 | 7.0 | 0.02 | 0.35 | 0.25 | 90 | 1017.8 |
| 20260506194217 | 38 | 56 | 3.0 | 7.0 | 0.02 | 0.35 | 0.25 | 90 | 1017.9 |
| 20260506193503 | 38 | 49 | 4.0 | 6.0 | 0.02 | 0.35 | 0.25 | 90 | 1017.6 |
| 20260506193004 | 38 | 57 | 4.0 | 6.0 | 0.02 | 0.35 | 0.25 | 91 | 1017.6 |
| 20260506192505 | 38 | 62 | 3.0 | 6.0 | 0.02 | 0.35 | 0.25 | 90 | 1017.5 |
| 20260506192003 | 38 | 48 | 3.0 | 7.0 | 0.02 | 0.35 | 0.25 | 90 | 1017.5 |
| 20260506191503 | 38 | 49 | 3.0 | 7.0 | 0.02 | 0.35 | 0.25 | 89 | 1017.6 |
| 20260506191215 | 38 | 55 | 3.0 | 7.0 | 0.01 | 0.34 | 0.24 | 89 | 1017.7 |
| 20260506190504 | 38 | 69 | 3.0 | 6.0 | 0.01 | 0.34 | 0.24 | 90 | 1017.6 |
| 20260506190005 | 38 | 62 | 4.0 | 7.0 | 0.00 | 0.33 | 0.23 | 90 | 1017.5 |
| 20260506185714 | 38 | 59 | 4.0 | 7.0 | 0.00 | 0.33 | 0.23 | 90 | 1017.4 |
| 20260506185003 | 38 | 67 | 4.0 | 7.0 | 0.00 | 0.33 | 0.23 | 90 | 1017.5 |
| 20260506184504 | 38 | 75 | 4.0 | 7.0 | 0.00 | 0.33 | 0.23 | 90 | 1017.5 |
| 20260506184004 | 38 | 78 | 4.0 | 9.0 | 0.00 | 0.33 | 0.23 | 91 | 1017.5 |
| 20260506183503 | 38 | 82 | 4.0 | 9.0 | 0.01 | 0.33 | 0.23 | 90 | 1017.5 |
| 20260506183003 | 38 | 84 | 4.0 | 7.0 | 0.01 | 0.33 | 0.23 | 91 | 1017.4 |
| 20260506182509 | 38 | 83 | 4.0 | 7.0 | 0.01 | 0.33 | 0.23 | 91 | 1017.7 |
| 20260506182003 | 38 | 83 | 5.0 | 8.0 | 0.01 | 0.33 | 0.23 | 91 | 1017.5 |
| 20260506181503 | 38 | 83 | 5.0 | 8.0 | 0.01 | 0.33 | 0.23 | 92 | 1017.4 |
| 20260506181004 | 38 | 80 | 6.0 | 9.0 | 0.01 | 0.33 | 0.23 | 92 | 1017.5 |
| 20260506180503 | 38 | 78 | 5.0 | 9.0 | 0.01 | 0.33 | 0.23 | 93 | 1017.5 |
| 20260506180013 | 38 | 78 | 5.0 | 9.0 | 0.01 | 0.33 | 0.23 | 93 | 1017.4 |
| 20260506175504 | 37 | 77 | 5.0 | 9.0 | 0.01 | 0.33 | 0.23 | 93 | 1017.4 |
| 20260506175004 | 37 | 74 | 5.0 | 9.0 | 0.02 | 0.33 | 0.23 | 93 | 1017.4 |
| 20260506174504 | 36 | 72 | 5.0 | 9.0 | 0.02 | 0.33 | 0.23 | 93 | 1017.5 |
| 20260506174003 | 36 | 77 | 5.0 | 8.0 | 0.02 | 0.33 | 0.23 | 93 | 1017.5 |
| 20260506173504 | 36 | 77 | 5.0 | 10.0 | 0.01 | 0.32 | 0.22 | 93 | 1017.6 |
| 20260506173003 | 36 | 75 | 6.0 | 10.0 | 0.01 | 0.32 | 0.22 | 93 | 1017.5 |
| 20260506172503 | 36 | 79 | 6.0 | 8.0 | 0.02 | 0.32 | 0.22 | 93 | 1017.5 |
| 20260506172004 | 36 | 75 | 5.0 | 8.0 | 0.02 | 0.32 | 0.22 | 93 | 1017.4 |
| 20260506171504 | 36 | 67 | 5.0 | 8.0 | 0.02 | 0.32 | 0.22 | 93 | 1017.4 |
| 20260506171004 | 36 | 66 | 5.0 | 8.0 | 0.03 | 0.32 | 0.22 | 93 | 1017.5 |
| 20260506170714 | 36 | 65 | 5.0 | 8.0 | 0.03 | 0.32 | 0.22 | 93 | 1017.5 |
| 20260506170004 | 36 | 74 | 5.0 | 8.0 | 0.04 | 0.32 | 0.22 | 94 | 1017.2 |
| 20260506165715 | 36 | 76 | 5.0 | 7.0 | 0.04 | 0.32 | 0.22 | 94 | 1017.2 |
| 20260506165003 | 35 | 76 | 5.0 | 7.0 | 0.04 | 0.31 | 0.21 | 94 | 1017.0 |
| 20260506164716 | 35 | 78 | 4.0 | 7.0 | 0.04 | 0.31 | 0.21 | 94 | 1017.1 |
| 20260506164008 | 35 | 78 | 4.0 | 7.0 | 0.05 | 0.31 | 0.21 | 94 | 1017.1 |
| 20260506163717 | 35 | 77 | 4.0 | 6.0 | 0.05 | 0.31 | 0.21 | 94 | 1017.1 |
| 20260506163003 | 35 | 87 | 4.0 | 7.0 | 0.06 | 0.31 | 0.21 | 94 | 1016.9 |
| 20260506162504 | 35 | 90 | 5.0 | 8.0 | 0.05 | 0.30 | 0.20 | 94 | 1016.9 |
| 20260506162004 | 35 | 90 | 5.0 | 8.0 | 0.05 | 0.30 | 0.20 | 94 | 1016.7 |
| 20260506161504 | 35 | 92 | 4.0 | 7.0 | 0.05 | 0.30 | 0.20 | 94 | 1016.6 |
| 20260506161004 | 35 | 91 | 4.0 | 7.0 | 0.04 | 0.29 | 0.19 | 94 | 1016.6 |
| 20260506160503 | 34 | 86 | 5.0 | 7.0 | 0.05 | 0.29 | 0.19 | 94 | 1016.7 |
| 20260506160003 | 34 | 85 | 4.0 | 7.0 | 0.04 | 0.28 | 0.18 | 94 | 1016.4 |
| 20260506155716 | 34 | 84 | 4.0 | 6.0 | 0.04 | 0.28 | 0.18 | 94 | 1016.6 |